ROMMA est une association bénévole à but non lucratif. Votre soutien est indispensable : ADHERER à ROMMA ou FAIRE un DON

Crêts du Salève - (74, Haute-Savoie)

Salève (1270 m)   Longitude: 6° 10' 28'' E   Latitude: 46° 7' 42'' N Station romma n°73
 

Détail journalier du     <<     >>

Température Precipitation Humidité Vent Dir Rafale Dir. rafale Ensol.
Heure (°C) (mm) (%) (km/h) (km/h) (min)
01:00 4.209416S29S0
02:00 4.508615SSO26SSE0
03:00 4.608410SSO19SSO0
04:00 4.608310SSO18SO0
05:00 4.608113SO19SO0
06:00 4.907710SSO18SSO0
07:00 5.107410SSE19SSE0
08:00 3.80867S11S0
09:00 6.10679S18S50
10:00 6.60678S16S60
11:00 7.80684S10S60
12:00 7.60766S16ESE60
13:00 7.90754ESE15SSE60
14:00 9.206312SSO29SO60
15:00 9.407412SSO27S60
16:00 9.906420SSO37SSO60
17:00 9.806421SO37SO60
18:00 10.506015OSO32S40
19:00 10.206118S34S0
20:00 10.705920S35SO0
21:00 10.006412SSO24SSO0
22:00 8.907213SO35S0
23:00 8.108018S34S0
minuit 8.108021SO37SSO0

Graphique du 16-10-2019

 

Serveur OMMA